This demonstration page uses our WeatherBlox Daily Observations layout. Learn more.

Left ArrowRight Arrow

39.92423, -83.80882

Hourly Observations for July 26, 2021

Temp ( °F °C ) Dew Point ( °F °C ) Humidity (%) Winds ( mph kmh ) Pressure ( in mb ) Visibility ( mi km ) Precip ( " mm )
12:56 am 00:56 Clear 70 21 N/A N/A N N/A 29.96 1015 9 14 N/A
1:56 am 01:56 Clear with Mist and Fog 70 21 N/A N/A W 3 6 29.96 1015 3 5 N/A
2:03 am 02:03 Clear with Mist and Fog 70 21 N/A N/A W 5 7 29.95 1014 3 4 N/A
2:10 am 02:10 Clear 70 21 N/A N/A W 3 6 29.95 1014 8 13 N/A
2:42 am 02:42 Clear with Mist and Fog 72 22 N/A N/A N N/A 29.94 1014 2 2 N/A
2:45 am 02:45 Clear with Mist and Fog 70 21 N/A N/A N N/A 29.95 1014 1 1 N/A
2:48 am 02:48 Mostly Cloudy with Fog 70 21 N/A N/A N N/A 29.95 1014 1 1 N/A
2:56 am 02:56 Mostly Cloudy with Fog 70 21 N/A N/A N N/A 29.96 1014 0 0 N/A
3:23 am 03:23 Mostly Cloudy with Mist and Fog 68 20 N/A N/A N N/A 29.95 1014 1 1 N/A
3:26 am 03:26 Mostly Cloudy with Mist and Fog 66 19 N/A N/A N N/A 29.96 1014 1 2 N/A
3:34 am 03:34 Cloudy with Mist and Fog 66 19 N/A N/A N N/A 29.96 1014 1 1 N/A
3:42 am 03:42 Cloudy with Fog 68 20 N/A N/A N N/A 29.95 1014 1 1 N/A
3:56 am 03:56 Mostly Cloudy with Fog 66 19 N/A N/A N N/A 29.96 1015 1 1 N/A
3:59 am 03:59 Mostly Cloudy with Mist and Fog 68 20 N/A N/A N N/A 29.95 1014 1 2 N/A
4:02 am 04:02 Mostly Cloudy with Mist and Fog 68 20 N/A N/A N N/A 29.95 1014 3 5 N/A
4:11 am 04:11 Partly Cloudy 68 20 N/A N/A N N/A 29.95 1014 10 16 N/A
4:56 am 04:56 Hazy 68 20 N/A N/A N N/A 29.96 1015 4 6 N/A
5:05 am 05:05 Clear with Mist and Fog 68 20 N/A N/A N N/A 29.95 1014 3 4 N/A
5:13 am 05:13 Clear 68 20 N/A N/A N N/A 29.95 1014 8 13 N/A
5:56 am 05:56 Hazy 66 19 N/A N/A N N/A 29.96 1015 5 8 N/A
6:46 am 06:46 Sunny with Mist and Fog 68 20 N/A N/A N N/A 29.97 1015 1 2 N/A
6:48 am 06:48 Sunny with Mist and Fog 68 20 N/A N/A N N/A 29.97 1015 1 1 N/A
6:56 am 06:56 Sunny with Mist and Fog 68 20 N/A N/A N N/A 29.98 1015 1 1 N/A
6:58 am 06:58 Sunny with Mist and Fog 68 20 N/A N/A N N/A 29.98 1015 2 2 N/A
7:05 am 07:05 Hazy 68 20 N/A N/A N N/A 29.97 1015 4 6 N/A
7:56 am 07:56 Sunny 70 21 N/A N/A NNW 5 7 30.00 1016 7 11 N/A
8:56 am 08:56 Sunny 76 24.4 73 22.8 91 91 N N/A 30.00 1016 10 16 N/A
9:56 am 09:56 Sunny 81 27.2 71 21.7 72 72 N 3 6 30.01 1016 10 16 N/A
10:56 am 10:56 Sunny 83 28.3 68 20 61 61 NNE 9 15 30.01 1016 10 16 N/A
11:56 am 11:56 Sunny 84 28.9 66 18.9 55 55 NNE 9 15 30.01 1016 10 16 N/A
12:56 pm 12:56 Sunny 85 29.4 63 17.2 48 48 N 8 13 30.02 1017 10 16 N/A
1:56 pm 13:56 Sunny 86 30 57 13.9 37 37 NNW 7 11 30.01 1016 10 16 N/A
2:56 pm 14:56 Sunny 86 30 59 15 40 40 NW 8 13 30.01 1016 10 16 N/A
3:56 pm 15:56 Sunny 86 30 59 15 40 40 NNW 10 17 30.01 1016 10 16 N/A
4:56 pm 16:56 Sunny 86 30 60 15.6 42 42 N 7 11 30.01 1016 10 16 N/A
5:56 pm 17:56 Sunny 85 29.4 62 16.7 46 46 N 9 15 30.00 1016 10 16 N/A
6:56 pm 18:56 Sunny 84 28.9 63 17.2 49 49 NNW 8 13 30.00 1016 10 16 N/A
7:56 pm 19:56 Sunny 81 27.2 65 18.3 58 58 NNW 5 7 30.00 1016 10 16 N/A
8:56 pm 20:56 Clear 77 25 64 17.8 64 64 NNE 6 9 30.01 1016 10 16 N/A
9:56 pm 21:56 Clear 72 22.2 66 18.9 82 82 N N/A 30.04 1017 10 16 N/A
10:56 pm 22:56 Clear 70 21.1 67 19.4 90 90 N N/A 30.05 1018 10 16 N/A
11:56 pm 23:56 Clear 66 18.9 66 18.9 100 100 N N/A 30.04 1017 10 16 N/A

Powered by AerisWeather